DELTA 1 DEB, 42084

Orbit data source: Space-Track

DELTA 1 DEB, 42084 is space debris in SSO originally from a launch on Sun, 15 Dec 1968 UTC launched from the Air Force Western Test Range (AFWTR). Debris objects in space refer to the collection of defunct objects orbiting the Earth. Examples of debris include non-operational satellites, rocket bodies, and fragments generated from explosions, collisions, or faulty payload assembly.

Loading next visibility...
Identifier
42084, 1968-114L
Orbit
SSO
Country
Flag of USUS
Related business
Manufacturer
Aerojet
Mission
Spacecraft
Bus & Motor
Unknown
Mass
Unknown
Launch date (UTC)
1968-12-15 (57 years ago)
Launch vehicle
Unknown
Launch site
Air Force Western Test Range (AFWTR)
Object type
Payload
Rocket body
Debris
Shape & HBR
Unknown shape, 0.1 m
Radar Cross Section
Small (<0.1 m²)

Expand to show TLE details & history
Last TLE update: 2 weeks ago

TLE from 2 weeks ago
0 DELTA 1 DEB
1 42084U 68114L   26020.38220960  .00000312  00000-0  17887-2 0  9997
2 42084 101.7172  70.9639 0341249 118.6871 244.8952 12.53926996281241
Epoch: 2026-01-20T09:10Z
TLE epoch observation values (Epoch: 2026-01-20T09:10:22.909Z)
Latitude
-0.00001°
Longitude
173.60356°
Altitude
1,571.338 km
Speed
7.028 km/s
True Right ascension
04h 43m 51s
True Declination
0° 00' 00"
Sunlit
Object was in daylight at epoch
Visualization orbit readout
Latitude
Unknown
Longitude
Unknown
Altitude
Unknown
Speed
Unknown
Apparent Right ascension
Unknown
Apparent Declination
Unknown
Sunlit
N/A
Visualization observer readout
Local Sidereal Time
13:07:29
Azimuth
Unknown
Elevation
Unknown
Doppler factor
Unknown
Orbital elements
Apogee altitude
1,712.634 km
Perigee altitude
1,178.662 km
Semi-major axis
7,823.785 km
Eccentricity
0.03412
Inclination
101.7172°
RAAN
70.9639°
Arg. of periapsis
118.6871°
True anomaly
241.4193°
Mean anomaly
244.8952°
Eccentric anomaly
243.15076°
Mean motion
3.1363 °/min
Orbital period
114.78 mins
BSTAR
0.0017887
Loading maneuver chart data...
Computing Atmospheric mass density...
Loading historical data...
Loading historical data...
Loading historical data...
Loading historical data...
Loading historical data...
Loading historical data...
Loading historical data...

Documentation

Showing up to 5 results
|